period_start,C,m1,H,J0,J1,J2,J3,J4,J5,JA,JB,JC,JD,JJ,JK,JN,#
2014-12-19 00:00:38,0.23,2.30,0.00,19.96,24.72,28.04,4.87,27.17,1030.31,2039.71,2651.92,2697.72,2923.23,349.55,355.56,16.44,0000 0000 0000 0000 000000
2014-12-19 00:05:39,0.21,2.30,0.00,19.97,24.72,27.99,4.95,27.27,1030.31,2039.79,2649.96,2696.38,2921.73,350.05,356.21,16.47,0000 0000 0000 0000 000000
2014-12-19 00:10:40,0.20,2.31,0.00,20.03,24.72,28.02,4.87,27.32,1030.33,2039.70,2647.87,2694.94,2920.40,349.69,355.54,16.50,0000 0000 0000 0000 000000
2014-12-19 00:15:42,0.22,2.31,0.00,20.01,24.72,28.02,4.94,27.32,1030.43,2039.87,2645.86,2693.60,2919.04,349.78,355.72,16.53,0000 0000 0000 0000 000000
2014-12-19 00:20:43,0.18,2.32,0.00,20.02,24.72,28.04,4.90,27.23,1030.56,2039.95,2644.19,2692.45,2917.69,350.20,356.28,16.56,0000 0000 0000 0000 000000
2014-12-19 00:25:45,0.19,2.33,0.00,20.01,24.72,28.03,4.91,27.13,1030.50,2039.98,2642.49,2691.09,2916.10,350.16,356.20,16.59,0000 0000 0000 0000 000000
2014-12-19 00:30:46,0.23,2.33,0.00,19.96,24.72,28.04,4.93,27.17,1030.46,2039.96,2640.33,2689.53,2914.43,350.40,356.31,16.61,0000 0000 0000 0000 000000
2014-12-19 00:35:47,0.23,2.34,0.00,19.93,24.71,28.00,4.91,27.13,1030.47,2039.91,2638.01,2687.96,2912.82,349.94,355.93,16.64,0000 0000 0000 0000 000000
2014-12-19 00:40:48,0.22,2.35,0.00,20.04,24.70,28.00,4.93,27.17,1030.33,2039.92,2635.82,2686.50,2911.16,350.56,356.61,16.67,0000 0000 0000 0000 000000
2014-12-19 00:45:50,0.21,2.35,0.00,20.07,24.70,28.01,4.99,27.23,1030.31,2039.81,2633.66,2684.92,2909.41,350.41,356.40,16.70,0000 0000 0000 0000 000000
2014-12-19 00:50:51,0.24,2.36,0.00,20.05,24.70,28.02,4.92,27.24,1030.32,2039.73,2631.27,2683.28,2907.68,350.18,356.18,16.73,0000 0000 0000 0000 000000
2014-12-19 00:55:52,0.26,2.37,0.00,20.07,24.70,27.99,4.90,27.18,1030.34,2039.87,2629.01,2681.67,2906.00,350.19,356.11,16.76,0000 0000 0000 0000 000000
2014-12-19 01:00:54,0.22,2.37,0.00,20.00,24.70,28.01,5.07,27.23,1030.32,2039.92,2626.71,2680.16,2904.33,350.40,356.38,16.79,0000 0000 0000 0000 000000
2014-12-19 01:05:55,0.29,2.38,0.00,19.97,24.70,27.97,4.97,27.18,1030.33,2039.97,2624.09,2678.35,2902.42,350.25,356.35,16.82,0000 0000 0000 0000 000000
2014-12-19 01:10:56,0.28,2.39,0.00,20.05,24.70,28.02,4.88,27.15,1030.30,2039.94,2621.36,2676.32,2900.30,349.57,355.35,16.85,0000 0000 0000 0000 000000
2014-12-19 01:15:58,0.27,2.40,0.00,20.03,24.70,28.04,4.87,27.30,1030.30,2039.95,2618.63,2674.43,2898.26,349.69,355.69,16.88,0000 0000 0000 0000 000000
2014-12-19 01:20:59,0.26,2.41,0.00,20.03,24.70,28.05,4.87,27.26,1030.30,2039.95,2616.18,2672.74,2896.51,349.64,355.71,16.91,0000 0000 0000 0000 000000
2014-12-19 01:26:00,0.20,2.41,0.00,20.06,24.70,28.04,4.88,27.32,1030.29,2039.97,2614.11,2671.34,2894.94,349.68,355.66,16.94,0000 0000 0000 0000 000000
2014-12-19 01:31:02,0.17,2.42,0.00,20.01,24.70,28.02,4.95,27.24,1030.29,2039.96,2612.57,2670.16,2893.71,350.43,356.35,16.97,0000 0000 0000 0000 000000
2014-12-19 01:36:03,0.14,2.42,0.00,19.95,24.70,28.01,4.85,27.23,1030.29,2039.94,2611.11,2669.05,2892.61,350.10,355.99,17.00,0000 0000 0000 0000 000000
2014-12-19 01:41:04,0.16,2.43,0.00,20.06,24.70,28.00,4.87,27.17,1030.29,2039.91,2609.55,2668.04,2891.42,349.76,355.83,17.03,0000 0000 0000 0000 000000
2014-12-19 01:46:05,0.13,2.43,0.00,20.08,24.70,28.04,5.00,27.19,1030.29,2039.94,2608.22,2667.03,2890.31,350.38,356.35,17.05,0000 0000 0000 0000 000000
2014-12-19 01:51:06,0.16,2.44,0.00,20.06,24.71,28.02,5.04,27.15,1030.29,2039.97,2606.86,2665.97,2889.19,350.33,356.27,17.08,0000 0000 0000 0000 000000
2014-12-19 01:56:07,0.16,2.44,0.00,20.04,24.72,28.03,4.87,27.07,1030.26,2039.92,2605.35,2664.83,2887.97,350.43,356.24,17.11,0000 0000 0000 0000 000000
2014-12-19 02:01:09,0.19,2.45,0.00,20.00,24.72,28.01,4.93,27.09,1030.20,2039.86,2603.65,2663.63,2886.65,349.85,355.77,17.14,0000 0000 0000 0000 000000
2014-12-19 02:06:10,0.24,2.45,0.00,19.96,24.72,28.00,4.91,27.28,1030.15,2039.83,2601.43,2662.04,2884.95,350.05,355.94,17.17,0000 0000 0000 0000 000000
2014-12-19 02:11:11,0.31,2.46,0.00,20.03,24.72,28.01,4.91,27.22,1029.98,2039.70,2598.40,2659.89,2882.65,350.29,355.96,17.20,0000 0000 0000 0000 000000
2014-12-19 02:16:13,0.25,2.47,0.00,20.04,24.72,27.99,4.99,27.14,1029.82,2039.77,2595.75,2658.02,2880.70,349.70,355.56,17.23,0000 0000 0000 0000 000000
2014-12-19 02:21:14,0.19,2.48,0.00,20.05,24.72,28.01,4.97,27.17,1029.80,2039.61,2593.51,2656.54,2879.16,350.51,356.07,17.26,0000 0000 0000 0000 000000
2014-12-19 02:26:15,0.21,2.48,0.00,20.05,24.72,28.02,4.91,26.94,1029.80,2039.53,2591.49,2655.04,2877.71,349.86,355.46,17.29,0000 0000 0000 0000 000000
2014-12-19 02:31:17,0.25,2.49,0.00,20.03,24.72,28.06,4.92,27.07,1029.80,2039.47,2589.23,2653.41,2875.96,350.35,356.18,17.32,0000 0000 0000 0000 000000
2014-12-19 02:36:18,0.19,2.50,0.00,19.94,24.72,28.01,4.86,27.02,1029.80,2039.35,2587.16,2651.94,2874.36,349.64,355.48,17.35,0000 0000 0000 0000 000000
2014-12-19 02:41:19,0.17,2.50,0.00,20.02,24.72,28.00,4.96,27.00,1029.79,2039.30,2585.38,2650.71,2873.12,350.56,356.28,17.38,0000 0000 0000 0000 000000
2014-12-19 02:46:20,0.12,2.51,0.00,20.07,24.72,28.00,4.84,26.90,1029.78,2039.40,2584.10,2649.83,2872.13,349.98,356.00,17.41,0000 0000 0000 0000 000000
2014-12-19 02:51:21,0.10,2.51,0.00,20.07,24.72,28.04,4.89,27.05,1029.65,2039.23,2582.76,2649.00,2871.23,350.32,355.77,17.44,0000 0000 0000 0000 000000
2014-12-19 02:56:23,0.15,2.51,0.00,20.07,24.72,28.02,4.95,27.08,1029.44,2039.33,2581.69,2648.12,2870.45,350.48,356.08,17.46,0000 0000 0000 0000 000000
2014-12-19 03:01:24,0.12,2.52,0.00,20.07,24.72,28.04,4.97,27.12,1029.35,2039.61,2580.92,2647.55,2869.71,351.01,356.36,17.49,0000 0000 0000 0000 000000
2014-12-19 03:06:25,0.10,2.52,0.00,19.96,24.72,28.03,4.94,27.22,1029.32,2039.53,2579.92,2646.75,2868.73,350.29,355.73,17.52,0000 0000 0000 0000 000000
2014-12-19 03:11:26,0.11,2.52,0.00,20.00,24.72,28.02,4.89,27.08,1029.32,2039.43,2578.77,2645.90,2867.82,349.68,355.31,17.55,0000 0000 0000 0000 000000
2014-12-19 03:16:27,0.12,2.53,0.00,20.06,24.72,28.02,4.86,27.04,1029.32,2039.48,2577.64,2645.07,2867.03,349.59,355.08,17.58,0000 0000 0000 0000 000000
2014-12-19 03:21:28,0.12,2.53,0.00,20.06,24.72,28.02,4.85,27.18,1029.31,2039.49,2576.62,2644.30,2866.15,349.81,355.32,17.61,0000 0000 0000 0000 000000
2014-12-19 03:26:30,0.13,2.53,0.00,20.09,24.72,28.04,4.92,27.26,1029.31,2039.36,2575.39,2643.43,2865.25,349.83,355.54,17.64,0000 0000 0000 0000 000000
2014-12-19 03:31:31,0.14,2.54,0.00,20.05,24.71,28.03,4.87,27.20,1029.31,2039.59,2574.38,2642.75,2864.54,349.67,355.30,17.67,0000 0000 0000 0000 000000
2014-12-19 03:36:32,0.10,2.54,0.00,19.99,24.70,28.01,4.86,27.24,1029.22,2039.67,2573.30,2642.02,2863.89,350.00,355.58,17.70,0000 0000 0000 0000 000000
2014-12-19 03:41:34,0.13,2.55,0.00,20.01,24.70,28.01,4.94,27.18,1028.98,2039.75,2572.29,2641.25,2863.06,350.15,355.69,17.73,0000 0000 0000 0000 000000
2014-12-19 03:46:34,0.06,2.55,0.00,20.08,24.70,28.02,5.03,27.17,1028.87,2039.54,2571.34,2640.55,2862.17,350.44,355.86,17.76,0000 0000 0000 0000 000000
2014-12-19 03:51:36,0.13,2.55,0.00,20.09,24.70,28.00,5.00,27.07,1028.85,2039.63,2570.30,2639.97,2861.50,350.31,355.58,17.79,0000 0000 0000 0000 000000
2014-12-19 03:56:37,0.13,2.56,0.00,20.07,24.70,28.02,4.85,27.04,1028.83,2039.81,2569.51,2639.15,2860.96,349.93,355.34,17.82,0000 0000 0000 0000 000000
2014-12-19 04:01:38,0.10,2.56,0.00,20.07,24.70,28.04,4.93,27.07,1028.84,2039.93,2568.73,2638.75,2860.16,350.02,355.34,17.85,0000 0000 0000 0000 000000
2014-12-19 04:06:40,0.09,2.56,0.00,19.96,24.70,28.06,4.88,27.08,1028.83,2039.95,2567.90,2638.03,2859.59,349.53,355.01,17.87,0000 0000 0000 0000 000000
2014-12-19 04:11:41,0.09,2.56,0.00,19.93,24.70,28.03,4.89,27.07,1028.83,2039.87,2567.06,2637.30,2858.79,349.64,355.25,17.90,0000 0000 0000 0000 000000
2014-12-19 04:16:42,0.10,2.57,0.00,20.04,24.70,27.99,4.94,27.02,1028.83,2039.90,2566.18,2636.69,2858.04,350.03,355.51,17.93,0000 0000 0000 0000 000000
2014-12-19 04:21:44,0.09,2.57,0.00,20.07,24.70,28.01,4.93,27.08,1028.84,2039.87,2565.17,2636.01,2857.22,350.10,355.42,17.96,0000 0000 0000 0000 000000
2014-12-19 04:26:45,0.12,2.57,0.00,20.08,24.70,28.02,4.85,27.07,1028.84,2039.83,2564.32,2635.29,2856.69,349.71,355.26,17.99,0000 0000 0000 0000 000000
2014-12-19 04:31:47,0.05,2.58,0.00,20.08,24.70,28.02,4.87,27.18,1028.83,2039.91,2563.75,2634.89,2855.96,349.88,355.33,18.02,0000 0000 0000 0000 000000
2014-12-19 04:36:48,0.13,2.58,0.00,20.05,24.70,28.03,4.88,27.10,1028.83,2039.91,2562.72,2634.08,2855.13,349.93,355.34,18.05,0000 0000 0000 0000 000000
2014-12-19 04:41:49,0.09,2.58,0.00,19.99,24.70,28.05,4.86,27.08,1028.83,2039.91,2561.90,2633.48,2854.69,349.83,355.34,18.08,0000 0000 0000 0000 000000
2014-12-19 04:46:50,0.05,2.58,0.00,20.02,24.70,28.03,4.91,27.03,1028.85,2039.81,2561.03,2632.91,2853.94,349.61,355.06,18.11,0000 0000 0000 0000 000000
2014-12-19 04:51:51,0.14,2.59,0.00,20.04,24.70,28.03,4.98,27.13,1028.84,2039.85,2560.12,2632.10,2853.11,350.21,355.46,18.14,0000 0000 0000 0000 000000
2014-12-19 04:56:53,0.09,2.59,0.00,20.06,24.70,28.03,4.80,27.00,1028.83,2039.84,2559.35,2631.61,2852.48,349.81,355.20,18.17,0000 0000 0000 0000 000000
2014-12-19 05:01:54,0.04,2.59,0.00,20.05,24.70,28.03,4.94,27.10,1028.80,2039.83,2558.84,2631.00,2851.83,349.85,355.45,18.20,0000 0000 0000 0000 000000
2014-12-19 05:06:55,0.10,2.59,0.00,20.00,24.70,28.01,4.90,27.13,1028.57,2039.74,2558.03,2630.25,2851.06,349.88,355.30,18.23,0000 0000 0000 0000 000000
2014-12-19 05:11:57,0.09,2.60,0.00,19.95,24.70,28.00,4.95,27.15,1028.35,2039.78,2557.18,2629.82,2850.37,349.88,355.10,18.26,0000 0000 0000 0000 000000
2014-12-19 05:16:58,0.09,2.60,0.00,20.04,24.70,28.04,4.89,27.01,1028.34,2039.74,2556.35,2629.05,2849.80,349.86,355.15,18.28,0000 0000 0000 0000 000000
2014-12-19 05:21:59,0.12,2.60,0.00,20.06,24.70,28.01,4.93,27.13,1028.34,2039.81,2555.42,2628.45,2849.05,350.64,355.75,18.31,0000 0000 0000 0000 000000
2014-12-19 05:27:00,0.07,2.61,0.00,20.05,24.70,28.02,4.98,27.18,1028.33,2039.83,2554.63,2627.96,2848.40,350.59,355.85,18.34,0000 0000 0000 0000 000000
2014-12-19 05:32:01,0.11,2.61,0.00,20.05,24.70,28.01,4.96,27.17,1028.33,2039.88,2553.68,2627.13,2847.84,350.07,355.43,18.37,0000 0000 0000 0000 000000
2014-12-19 05:37:02,0.11,2.61,0.00,20.02,24.70,28.00,4.92,27.17,1028.33,2039.90,2552.68,2626.61,2847.04,350.05,354.97,18.40,0000 0000 0000 0000 000000
2014-12-19 05:42:04,0.09,2.62,0.00,19.91,24.70,27.99,4.82,27.19,1028.33,2039.87,2551.63,2625.89,2846.20,349.62,354.92,18.43,0000 0000 0000 0000 000000
2014-12-19 05:47:05,0.10,2.62,0.00,20.00,24.69,27.99,4.92,27.18,1028.32,2039.92,2550.76,2625.08,2845.66,349.99,355.35,18.46,0000 0000 0000 0000 000000
2014-12-19 05:52:06,0.10,2.62,0.00,20.02,24.69,28.03,4.88,27.04,1028.30,2039.97,2549.91,2624.56,2844.96,349.78,355.15,18.49,0000 0000 0000 0000 000000
2014-12-19 05:57:07,0.08,2.63,0.00,20.04,24.69,28.04,4.81,27.02,1028.32,2039.97,2548.99,2623.99,2844.13,349.75,355.15,18.52,0000 0000 0000 0000 000000
2014-12-19 06:02:09,0.11,2.63,0.00,20.08,24.69,28.04,4.92,27.09,1028.33,2039.95,2548.06,2623.21,2843.71,349.83,354.82,18.55,0000 0000 0000 0000 000000
2014-12-19 06:07:10,0.06,2.63,0.00,20.02,24.68,28.04,4.94,27.19,1028.33,2039.98,2547.18,2622.99,2842.99,350.27,355.75,18.58,0000 0000 0000 0000 000000
2014-12-19 06:12:11,0.11,2.63,0.00,19.94,24.68,27.98,4.90,27.17,1028.32,2039.97,2546.59,2622.27,2842.21,349.80,355.30,18.61,0000 0000 0000 0000 000000
2014-12-19 06:17:13,0.06,2.63,0.00,20.02,24.68,28.00,4.92,27.08,1028.23,2039.98,2545.72,2621.89,2841.82,350.24,355.50,18.64,0000 0000 0000 0000 000000
2014-12-19 06:22:14,0.09,2.64,0.00,20.05,24.69,27.99,4.91,26.93,1028.24,2039.99,2544.93,2621.10,2841.05,350.10,355.24,18.67,0000 0000 0000 0000 000000
2014-12-19 06:27:16,0.10,2.64,0.00,20.04,24.69,27.98,4.89,27.27,1028.30,2039.98,2544.08,2620.62,2840.38,350.34,355.38,18.69,0000 0000 0000 0000 000000
2014-12-19 06:32:17,0.06,2.64,0.00,20.03,24.69,28.03,4.81,27.21,1028.33,2039.98,2543.30,2620.02,2839.95,349.90,355.29,18.72,0000 0000 0000 0000 000000
2014-12-19 06:37:18,0.12,2.65,0.00,19.95,24.69,28.03,4.83,27.13,1028.33,2039.98,2542.48,2619.36,2839.13,349.66,354.98,18.75,0000 0000 0000 0000 000000
2014-12-19 06:42:20,0.08,2.65,0.00,19.88,24.69,28.02,4.87,27.25,1028.34,2039.97,2541.63,2618.81,2838.34,349.82,355.49,18.78,0000 0000 0000 0000 000000
2014-12-19 06:47:21,0.06,2.65,0.00,19.95,24.69,28.03,4.93,27.18,1028.33,2039.98,2541.02,2618.07,2837.86,349.72,354.98,18.81,0000 0000 0000 0000 000000
2014-12-19 06:52:22,0.10,2.65,0.00,20.02,24.70,28.02,4.94,27.19,1028.33,2039.96,2540.19,2617.65,2837.09,349.97,354.81,18.84,0000 0000 0000 0000 000000
2014-12-19 06:57:23,0.08,2.66,0.00,20.01,24.70,27.99,4.96,27.23,1028.32,2039.96,2539.40,2617.02,2836.59,350.60,355.89,18.87,0000 0000 0000 0000 000000
2014-12-19 07:02:25,0.08,2.66,0.00,20.01,24.70,28.02,4.98,27.25,1028.26,2039.97,2538.67,2616.55,2836.02,350.20,355.66,18.90,0000 0000 0000 0000 000000
2014-12-19 07:07:26,0.07,2.66,0.00,19.98,24.70,28.02,4.89,27.14,1028.20,2039.97,2537.98,2615.99,2835.34,349.83,355.23,18.93,0000 0000 0000 0000 000000
2014-12-19 07:12:27,0.09,2.66,0.00,19.96,24.70,27.95,4.88,27.21,1027.90,2039.96,2537.14,2615.39,2834.83,349.95,355.23,18.96,0000 0000 0000 0000 000000
2014-12-19 07:17:28,0.07,2.67,0.00,20.03,24.70,27.99,4.95,27.29,1027.96,2039.96,2536.49,2614.96,2834.04,350.26,355.23,18.99,0000 0000 0000 0000 000000
2014-12-19 07:22:29,0.11,2.67,0.00,20.05,24.70,28.01,5.00,27.18,1028.30,2039.97,2535.75,2614.17,2833.48,350.19,355.23,19.02,0000 0000 0000 0000 000000
2014-12-19 07:27:30,0.04,2.67,0.00,20.04,24.70,28.01,4.91,27.31,1028.17,2039.98,2534.99,2613.86,2833.01,349.97,355.01,19.05,0000 0000 0000 0000 000000
2014-12-19 07:32:31,0.11,2.67,0.00,20.03,24.70,28.03,4.93,27.27,1027.84,2039.96,2534.27,2613.07,2832.33,350.10,355.39,19.08,0000 0000 0000 0000 000000
2014-12-19 07:37:33,0.10,2.68,0.00,19.94,24.70,28.00,4.91,27.31,1027.92,2039.97,2533.27,2612.61,2831.89,350.10,355.32,19.11,0000 0000 0000 0000 000000
2014-12-19 07:42:34,0.08,2.68,0.00,20.01,24.70,27.98,4.92,27.21,1027.91,2039.94,2532.11,2611.96,2831.08,349.91,355.24,19.13,0000 0000 0000 0000 000000
2014-12-19 07:47:35,0.12,2.68,0.00,20.08,24.70,28.00,4.85,27.23,1027.86,2039.97,2531.49,2611.21,2830.52,349.71,355.02,19.16,0000 0000 0000 0000 000000
2014-12-19 07:52:36,0.04,2.68,0.00,20.06,24.70,28.01,4.92,27.27,1027.89,2039.96,2530.71,2610.85,2829.98,350.16,355.13,19.19,0000 0000 0000 0000 000000
2014-12-19 07:57:38,0.10,2.69,0.00,20.05,24.70,28.00,4.89,27.29,1027.87,2039.96,2530.02,2610.07,2829.23,350.20,355.28,19.22,0000 0000 0000 0000 000000
2014-12-19 08:02:39,0.10,2.69,0.00,20.03,24.70,28.01,4.93,27.17,1027.87,2039.97,2529.32,2609.72,2828.61,350.23,355.36,19.25,0000 0000 0000 0000 000000
2014-12-19 08:07:40,0.04,2.69,0.00,19.97,24.70,28.00,4.89,27.14,1027.92,2039.94,2528.85,2609.03,2828.00,350.39,355.42,19.28,0000 0000 0000 0000 000000
2014-12-19 08:12:41,0.08,2.69,0.00,20.02,24.70,28.02,4.80,27.21,1027.87,2039.82,2528.04,2608.49,2827.30,349.33,354.43,19.31,0000 0000 0000 0000 000000
2014-12-19 08:17:43,0.05,2.70,0.00,20.05,24.70,28.00,4.89,27.20,1027.85,2039.59,2527.17,2608.00,2826.87,349.97,354.92,19.34,0000 0000 0000 0000 000000
2014-12-19 08:22:44,0.11,2.70,0.00,20.07,24.70,27.97,4.95,27.23,1027.85,2039.62,2526.24,2607.31,2826.09,349.94,355.05,19.37,0000 0000 0000 0000 000000
2014-12-19 08:27:45,0.06,2.70,0.00,20.06,24.71,28.04,4.91,27.11,1027.81,2039.53,2525.60,2606.96,2825.60,350.12,355.33,19.40,0000 0000 0000 0000 000000
2014-12-19 08:32:46,0.09,2.70,0.00,20.05,24.72,28.00,4.98,27.28,1027.69,2039.60,2524.78,2606.19,2825.03,350.34,355.26,19.43,0000 0000 0000 0000 000000
2014-12-19 08:37:47,0.08,2.71,0.00,19.91,24.72,28.03,4.87,27.20,1027.60,2039.62,2523.85,2605.78,2824.56,350.05,355.30,19.46,0000 0000 0000 0000 000000
2014-12-19 08:42:48,0.12,2.71,0.00,20.00,24.72,27.97,4.89,27.18,1027.66,2039.71,2523.02,2605.05,2824.00,350.20,355.20,19.49,0000 0000 0000 0000 000000
2014-12-19 08:47:49,0.11,2.71,0.00,20.05,24.72,28.02,4.99,27.25,1027.72,2039.79,2522.21,2604.48,2823.20,350.48,355.60,19.51,0000 0000 0000 0000 000000
2014-12-19 08:52:50,0.07,2.72,0.00,20.09,24.72,28.04,4.88,27.11,1027.81,2039.93,2521.76,2604.01,2822.79,349.70,354.55,19.54,0000 0000 0000 0000 000000
2014-12-19 08:57:52,0.05,2.72,0.00,20.11,24.72,28.04,4.89,27.17,1027.82,2039.79,2520.99,2603.46,2822.03,350.36,355.18,19.57,0000 0000 0000 0000 000000
2014-12-19 09:02:53,0.09,2.72,0.00,20.11,24.72,28.04,4.91,27.28,1027.81,2039.78,2520.11,2602.98,2821.34,349.93,354.90,19.60,0000 0000 0000 0000 000000
2014-12-19 09:07:54,0.07,2.72,0.00,20.08,24.73,28.03,4.90,27.18,1027.79,2039.72,2519.47,2602.25,2820.93,349.86,354.93,19.63,0000 0000 0000 0000 000000
2014-12-19 09:12:56,0.08,2.72,0.00,20.00,24.74,28.02,4.90,27.12,1027.69,2039.76,2518.84,2601.97,2820.18,350.02,355.16,19.66,0000 0000 0000 0000 000000
2014-12-19 09:17:57,0.04,2.73,0.00,20.10,24.75,28.02,4.92,27.02,1027.74,2039.57,2518.02,2601.18,2819.77,350.07,355.22,19.69,0000 0000 0000 0000 000000
2014-12-19 09:22:58,0.07,2.73,0.00,20.12,24.75,28.04,4.90,27.13,1027.54,2039.51,2517.19,2600.85,2819.04,350.24,355.03,19.72,0000 0000 0000 0000 000000
2014-12-19 09:27:59,0.07,2.73,0.00,20.14,24.75,28.01,4.91,27.06,1027.42,2039.26,2516.45,2600.08,2818.43,350.24,354.94,19.75,0000 0000 0000 0000 000000
2014-12-19 09:33:01,0.04,2.73,0.00,20.12,24.75,28.01,4.98,26.97,1027.39,2039.21,2515.76,2599.73,2817.96,350.00,354.82,19.78,0000 0000 0000 0000 000000
2014-12-19 09:38:02,0.09,2.73,0.00,20.16,24.76,27.99,4.96,27.23,1027.38,2039.13,2514.90,2599.02,2817.19,350.13,354.83,19.81,0000 0000 0000 0000 000000
2014-12-19 09:43:04,0.08,2.74,0.00,20.17,24.77,28.04,4.83,27.23,1027.37,2039.13,2514.07,2598.48,2816.87,349.53,354.54,19.84,0000 0000 0000 0000 000000
2014-12-19 09:48:05,0.09,2.74,0.00,20.10,24.77,28.06,4.92,27.21,1027.36,2039.28,2513.61,2598.01,2816.08,349.88,354.63,19.87,0000 0000 0000 0000 000000
2014-12-19 09:53:06,0.09,2.74,0.00,20.14,24.77,28.04,5.02,27.28,1027.36,2039.27,2512.94,2597.49,2815.85,350.35,355.37,19.90,0000 0000 0000 0000 000000
2014-12-19 09:58:07,0.06,2.75,0.00,20.20,24.77,28.04,4.80,26.83,1027.36,2039.36,2512.11,2597.01,2815.09,349.66,354.53,19.93,0000 0000 0000 0000 000000
2014-12-19 10:03:08,0.12,2.75,0.00,20.22,24.79,28.05,4.95,27.09,1027.36,2039.28,2511.29,2596.39,2814.76,349.94,354.60,19.95,0000 0000 0000 0000 000000
2014-12-19 10:08:10,0.03,2.75,0.00,20.22,24.80,28.04,4.97,27.17,1027.36,2039.16,2510.39,2595.94,2814.03,350.03,354.61,19.98,0000 0000 0000 0000 000000
2014-12-19 10:13:11,0.11,2.75,0.00,20.26,24.80,28.01,4.88,27.00,1027.36,2039.13,2509.76,2595.12,2813.29,350.14,354.97,20.01,0000 0000 0000 0000 000000
2014-12-19 10:18:12,0.04,2.75,0.00,20.29,24.80,28.05,4.81,27.00,1027.36,2039.12,2509.00,2594.84,2812.92,350.07,354.90,20.04,0000 0000 0000 0000 000000
2014-12-19 10:23:13,0.10,2.76,0.00,20.28,24.81,28.07,4.91,27.04,1027.36,2039.06,2508.14,2594.06,2812.08,350.08,354.53,20.07,0000 0000 0000 0000 000000
2014-12-19 10:28:15,0.08,2.76,0.00,20.31,24.82,28.04,4.79,27.01,1027.36,2039.07,2507.57,2593.74,2811.80,349.32,353.95,20.10,0000 0000 0000 0000 000000
2014-12-19 10:33:16,0.07,2.76,0.00,20.34,24.82,28.07,4.86,27.07,1027.32,2039.09,2506.93,2593.04,2811.06,349.27,354.34,20.13,0000 0000 0000 0000 000000
2014-12-19 10:38:17,0.11,2.76,0.00,20.34,24.83,28.07,4.77,27.10,1027.02,2039.21,2506.09,2592.74,2810.69,349.52,353.89,20.16,0000 0000 0000 0000 000000
2014-12-19 10:43:18,0.05,2.77,0.00,20.36,24.85,28.02,4.96,27.16,1026.99,2039.07,2505.35,2592.02,2810.03,350.39,354.70,20.19,0000 0000 0000 0000 000000
2014-12-19 10:48:20,0.11,2.77,0.00,20.36,24.85,28.11,4.94,27.24,1026.92,2039.07,2504.63,2591.48,2809.40,350.02,354.39,20.22,0000 0000 0000 0000 000000
2014-12-19 10:53:21,0.04,2.77,0.00,20.38,24.86,28.09,4.83,27.06,1026.92,2039.02,2503.83,2590.92,2808.84,349.64,353.83,20.25,0000 0000 0000 0000 000000
2014-12-19 10:58:23,0.12,2.77,0.00,20.42,24.87,28.11,4.90,27.14,1026.96,2039.03,2502.92,2590.12,2808.05,350.24,354.45,20.28,0000 0000 0000 0000 000000
2014-12-19 11:03:24,0.11,2.78,0.00,20.42,24.87,28.06,4.99,27.22,1026.92,2039.01,2502.04,2589.61,2807.42,350.64,354.92,20.31,0000 0000 0000 0000 000000
2014-12-19 11:08:25,0.07,2.78,0.00,20.42,24.90,28.13,4.91,27.07,1026.88,2039.00,2501.19,2589.00,2806.79,349.65,354.24,20.34,0000 0000 0000 0000 000000
2014-12-19 11:13:27,0.10,2.78,0.00,20.39,24.90,28.08,4.85,27.20,1026.91,2039.02,2500.68,2588.34,2806.03,349.91,353.96,20.36,0000 0000 0000 0000 000000
2014-12-19 11:18:28,0.09,2.78,0.00,20.46,24.91,28.10,4.85,27.14,1026.88,2039.00,2499.73,2587.81,2805.45,349.78,354.34,20.39,0000 0000 0000 0000 000000
2014-12-19 11:23:29,0.14,2.79,0.00,20.46,24.92,28.13,4.85,27.21,1026.87,2039.00,2498.47,2586.86,2804.61,349.89,354.18,20.42,0000 0000 0000 0000 000000
2014-12-19 11:28:31,0.24,2.80,0.00,20.44,24.93,28.10,4.92,27.22,1026.87,2039.01,2496.40,2585.52,2803.15,350.24,354.26,20.45,0000 0000 0000 0000 000000
2014-12-19 11:33:32,0.28,2.80,0.00,20.49,24.95,28.14,4.84,27.21,1026.87,2039.01,2494.09,2583.74,2801.35,349.89,354.03,20.48,0000 0000 0000 0000 000000
2014-12-19 11:38:33,0.26,2.81,0.00,20.52,24.95,28.14,4.86,27.56,1026.87,2039.01,2491.71,2582.07,2799.61,349.59,353.67,20.51,0000 0000 0000 0000 000000
2014-12-19 11:43:34,0.25,2.82,0.00,20.53,24.97,28.13,4.85,27.35,1026.87,2039.00,2489.46,2580.34,2797.75,349.99,353.79,20.54,0000 0000 0000 0000 000000
2014-12-19 11:48:35,0.16,2.83,0.00,20.57,24.97,28.13,4.91,27.24,1026.89,2039.01,2487.89,2579.01,2796.25,350.29,354.38,20.57,0000 0000 0000 0000 000000
2014-12-19 11:53:37,0.26,2.83,0.00,20.57,24.98,28.18,4.94,27.23,1026.87,2039.00,2486.03,2577.70,2794.88,349.94,354.18,20.60,0000 0000 0000 0000 000000
2014-12-19 11:58:38,0.34,2.84,0.00,20.61,25.00,28.14,4.91,27.32,1026.87,2039.00,2482.99,2575.57,2792.73,349.97,354.14,20.63,0000 0000 0000 0000 000000
2014-12-19 12:03:39,0.32,2.85,0.00,20.61,25.01,28.18,4.80,27.18,1026.87,2039.00,2480.07,2573.52,2790.56,349.29,353.49,20.66,0000 0000 0000 0000 000000
2014-12-19 12:08:40,0.38,2.86,0.00,20.61,25.02,28.20,4.94,27.28,1026.87,2039.00,2476.77,2571.26,2788.20,350.03,354.06,20.69,0000 0000 0000 0000 000000
2014-12-19 12:13:42,0.35,2.87,0.00,20.65,25.03,28.17,4.89,27.22,1026.85,2039.00,2473.63,2569.07,2785.86,349.74,353.63,20.72,0000 0000 0000 0000 000000
2014-12-19 12:18:43,0.33,2.88,0.00,20.67,25.05,28.21,4.91,27.34,1026.80,2038.99,2470.57,2566.91,2783.63,349.61,353.64,20.75,0000 0000 0000 0000 000000
2014-12-19 12:23:44,0.28,2.89,0.00,20.71,25.06,28.23,4.87,27.27,1026.70,2038.99,2468.09,2565.14,2781.70,349.67,353.48,20.77,0000 0000 0000 0000 000000
2014-12-19 12:28:46,0.32,2.90,0.00,20.73,25.07,28.20,4.87,27.19,1026.51,2038.99,2465.33,2563.20,2779.60,350.55,354.29,20.80,0000 0000 0000 0000 000000
2014-12-19 12:33:47,0.33,2.91,0.00,20.74,25.08,28.25,4.90,27.10,1026.48,2038.98,2462.37,2561.17,2777.44,350.52,354.53,20.83,0000 0000 0000 0000 000000
2014-12-19 12:38:48,0.31,2.92,0.00,20.76,25.10,28.24,4.96,27.29,1026.55,2038.96,2459.45,2559.16,2775.23,350.22,353.94,20.86,0000 0000 0000 0000 000000
2014-12-19 12:43:49,0.29,2.93,0.00,20.76,25.11,28.19,4.95,27.28,1026.52,2038.97,2456.91,2557.42,2773.21,350.01,353.58,20.89,0000 0000 0000 0000 000000
2014-12-19 12:48:51,0.26,2.94,0.00,20.81,25.12,28.23,4.93,27.26,1026.49,2038.94,2454.65,2555.72,2771.43,350.39,353.88,20.92,0000 0000 0000 0000 000000
2014-12-19 12:53:52,0.26,2.94,0.00,20.83,25.14,28.23,4.79,27.26,1026.43,2038.87,2452.42,2553.94,2769.58,349.84,353.38,20.95,0000 0000 0000 0000 000000
2014-12-19 12:58:53,0.14,2.95,0.00,20.86,25.15,28.26,4.92,27.21,1026.42,2038.79,2450.83,2552.74,2768.23,350.25,353.81,20.98,0000 0000 0000 0000 000000